GEOFB FLKK-FVMV

Flight info

Callsign GEOFB
Flight time 0h 21m
Altitude 39000
Route GADBA1A GADBA UB529 ESRON
Aircraft C750/M-SBDE3FGHRWXY/S

Departure

Time 2026-05-08 12:00
Airport Kenneth Kaunda International Airport (FLKK)

Arrival

Time 2026-05-08 12:22
Airport Masvingo International Airport (FVMV)
Time Latitude Longitude Altitude Speed Heading
2026-05-08 11:59 -15.33040 28.44815 3769 ft 1 kts 96°
2026-05-08 11:59 -15.33064 28.45113 3762 ft 100 kts 95°
2026-05-08 12:00 -15.33179 28.46084 3907 ft 151 kts 98°
2026-05-08 12:00 -15.33168 28.47074 4822 ft 129 kts 69°
2026-05-08 12:00 -15.32597 28.47943 5009 ft 171 kts 63°
2026-05-08 12:00 -15.32570 28.49242 5521 ft 199 kts 109°
2026-05-08 12:01 -15.33351 28.50493 6281 ft 216 kts 132°
2026-05-08 12:01 -15.34490 28.51564 7199 ft 227 kts 139°
2026-05-08 12:01 -15.35712 28.52689 8050 ft 246 kts 136°
2026-05-08 12:01 -15.36961 28.53988 8790 ft 269 kts 133°
2026-05-08 12:02 -15.38300 28.55445 9609 ft 286 kts 133°
2026-05-08 12:02 -15.39705 28.56933 10631 ft 294 kts 134°
2026-05-08 12:02 -15.41212 28.58501 11081 ft 321 kts 134°
2026-05-08 12:02 -15.42844 28.60220 11366 ft 348 kts 134°
2026-05-08 12:03 -15.44585 28.62070 11864 ft 364 kts 134°
2026-05-08 12:03 -15.46363 28.63942 12741 ft 368 kts 134°
2026-05-08 12:03 -15.48188 28.65850 13486 ft 375 kts 134°
2026-05-08 12:03 -15.50006 28.67765 14298 ft 379 kts 135°
2026-05-08 12:04 -15.51860 28.69727 15086 ft 383 kts 135°
2026-05-08 12:04 -15.53744 28.71715 15812 ft 389 kts 135°
2026-05-08 12:04 -15.55650 28.73723 16567 ft 393 kts 135°
2026-05-08 12:04 -15.57585 28.75757 17327 ft 398 kts 136°
2026-05-08 12:05 -15.59761 28.77554 17980 ft 403 kts 146°
2026-05-08 12:05 -15.62093 28.79194 18789 ft 406 kts 147°
2026-05-08 12:05 -15.64453 28.80857 19495 ft 414 kts 146°
2026-05-08 12:05 -15.66789 28.82567 20242 ft 420 kts 146°
2026-05-08 12:06 -15.69188 28.84332 20942 ft 427 kts 146°
2026-05-08 12:06 -15.71648 28.86103 21641 ft 433 kts 147°
2026-05-08 12:06 -15.74142 28.87889 22310 ft 440 kts 147°
2026-05-08 12:06 -15.76667 28.89719 22974 ft 446 kts 146°
2026-05-08 12:07 -15.79221 28.91581 23638 ft 451 kts 147°
2026-05-08 12:07 -15.81816 28.93460 24292 ft 457 kts 147°
2026-05-08 12:07 -15.84439 28.95355 24934 ft 463 kts 147°
2026-05-08 12:07 -15.87095 28.97279 25599 ft 467 kts 147°
2026-05-08 12:08 -15.94389 29.02551 27305 ft 479 kts 149°
2026-05-08 12:08 -16.06724 29.08063 29541 ft 493 kts 159°
2026-05-08 12:08 -16.19597 29.13724 31541 ft 508 kts 161°
2026-05-08 12:08 -16.32545 29.19413 34074 ft 505 kts 161°
2026-05-08 12:09 -16.45513 29.25119 36381 ft 504 kts 162°
2026-05-08 12:09 -16.58383 29.30782 38682 ft 498 kts 162°
2026-05-08 12:09 -16.71273 29.36458 38919 ft 528 kts 161°
2026-05-08 12:09 -16.85207 29.42603 38926 ft 550 kts 161°
2026-05-08 12:10 -17.13544 29.55124 38929 ft 560 kts 162°
2026-05-08 12:10 -17.42563 29.67272 38941 ft 563 kts 164°
2026-05-08 12:11 -17.71629 29.79469 38956 ft 563 kts 164°
2026-05-08 12:11 -17.89325 29.86908 38970 ft 530 kts 160°
2026-05-08 12:12 -18.02751 29.93010 37751 ft 542 kts 155°
2026-05-08 12:12 -18.09525 29.96457 38982 ft 543 kts 162°
2026-05-08 12:12 -18.16200 29.99737 37824 ft 550 kts 160°
2026-05-08 12:13 -18.22961 30.03180 38983 ft 533 kts 162°
2026-05-08 12:13 -18.29881 30.06201 38981 ft 543 kts 164°
2026-05-08 12:13 -18.43666 30.12447 38994 ft 551 kts 164°
2026-05-08 12:14 -18.50707 30.15632 38939 ft 526 kts 163°
2026-05-08 12:14 -18.56497 30.18293 36200 ft 417 kts 166°
2026-05-08 12:14 -18.62078 30.20706 31166 ft 482 kts 164°
2026-05-08 12:14 -18.68319 30.23678 29009 ft 478 kts 162°
2026-05-08 12:15 -18.74245 30.26297 29131 ft 461 kts 163°
2026-05-08 12:15 -18.80161 30.29049 29128 ft 467 kts 161°
2026-05-08 12:15 -18.86222 30.31800 28435 ft 481 kts 162°
2026-05-08 12:15 -18.93635 30.35219 26871 ft 470 kts 161°
2026-05-08 12:16 -19.05383 30.40599 24420 ft 453 kts 161°
2026-05-08 12:16 -19.16606 30.45755 22076 ft 435 kts 160°
2026-05-08 12:16 -19.27506 30.50769 19796 ft 418 kts 159°
2026-05-08 12:16 -19.37947 30.55582 17609 ft 401 kts 158°
2026-05-08 12:17 -19.48036 30.60237 15502 ft 390 kts 158°
2026-05-08 12:17 -19.57889 30.64790 13479 ft 381 kts 158°
2026-05-08 12:17 -19.67493 30.69234 11490 ft 373 kts 158°
2026-05-08 12:17 -19.76208 30.73260 9695 ft 311 kts 158°
2026-05-08 12:18 -19.81270 30.75617 8663 ft 296 kts 157°
2026-05-08 12:18 -19.84985 30.77339 7917 ft 288 kts 157°
2026-05-08 12:18 -19.88328 30.78888 7215 ft 242 kts 157°
2026-05-08 12:18 -19.91269 30.80255 6596 ft 230 kts 157°
2026-05-08 12:19 -19.94062 30.81557 6002 ft 191 kts 157°
2026-05-08 12:19 -19.95841 30.82381 5626 ft 184 kts 157°
2026-05-08 12:19 -19.97020 30.82930 5354 ft 184 kts 157°
2026-05-08 12:19 -19.98217 30.83406 5084 ft 184 kts 163°
2026-05-08 12:20 -19.99432 30.83813 4843 ft 182 kts 162°
2026-05-08 12:20 -20.00639 30.84233 4603 ft 182 kts 162°
2026-05-08 12:20 -20.01845 30.84649 4367 ft 178 kts 161°
2026-05-08 12:20 -20.02928 30.85018 4146 ft 150 kts 161°
2026-05-08 12:21 -20.03850 30.85333 3952 ft 135 kts 161°
2026-05-08 12:21 -20.04734 30.85637 3783 ft 133 kts 161°
2026-05-08 12:21 -20.05609 30.85938 3615 ft 132 kts 161°
2026-05-08 12:21 -20.06340 30.86187 3597 ft 65 kts 161°
2026-05-08 12:22 -20.06443 30.86224 3598 ft 6 kts 161°
2026-05-08 12:22 -20.06352 30.86192 3597 ft 22 kts 161°
2026-05-08 12:22 -20.06156 30.86125 3594 ft 38 kts 160°
2026-05-08 12:22 -20.05988 30.86067 3592 ft 0 kts 163°